THOR ABLESTAR DEB, 753

Orbit data source: Space-Track

THOR ABLESTAR DEB, 753 is space debris in LEO originally from a launch on Thu, 05 Dec 1963 UTC launched from the Air Force Western Test Range (AFWTR). Debris objects in space refer to the collection of defunct objects orbiting the Earth. Examples of debris include non-operational satellites, rocket bodies, and fragments generated from explosions, collisions, or faulty payload assembly.

Loading next visibility...
Identifier
753, 1963-049F
Orbit
LEO
Country
Flag of USUS
Related business
Manufacturer
Unknown
Mission
Spacecraft
Bus & Motor
Unknown
Mass
Unknown
Launch date (UTC)
1963-12-05 (62 years ago)
Launch vehicle
Unknown
Launch site
Air Force Western Test Range (AFWTR)
Object type
Payload
Rocket body
Debris
Shape & HBR
Unknown
Radar Cross Section
Small (<0.1 m²)

Expand to show TLE details & history
Last TLE update: 1 day ago

TLE from 1 day ago
0 THOR ABLESTAR DEB
1 00753U 63049F   25242.06301499  .00000247  00000-0  34516-3 0  9999
2 00753  89.9089  75.2859 0026169 334.0087 142.3053 13.54764750 41134
Epoch: 2025-08-30T01:30Z
TLE epoch observation values (Epoch: 2025-08-30T01:30:44.495Z)
Latitude
63.5874°
Longitude
-106.08467°
Altitude
1,081.222 km
Speed
7.31 km/s
True Right ascension
17h 00m 24s
True Declination
63° 27' 22"
Sunlit
Object was in daylight at epoch
Visualization orbit readout
Latitude
Unknown
Longitude
Unknown
Altitude
Unknown
Speed
Unknown
Apparent Right ascension
Unknown
Apparent Declination
Unknown
Sunlit
N/A
Visualization observer readout
Local Sidereal Time
18:06:49
Azimuth
Unknown
Elevation
Unknown
Doppler factor
Unknown
Orbital elements
Apogee altitude
1,071.266 km
Perigee altitude
1,032.379 km
Semi-major axis
7,429.959 km
Eccentricity
0.00262
Inclination
89.9089°
RAAN
75.2859°
Arg. of periapsis
334.0087°
True anomaly
142.48819°
Mean anomaly
142.3053°
Eccentric anomaly
142.39679°
Mean motion
3.38894 °/min
Orbital period
106.23 mins
BSTAR
0.00034516
Loading maneuver chart data...
Computing Atmospheric mass density...
Loading historical data...
Loading historical data...
Loading historical data...
Loading historical data...
Loading historical data...
Loading historical data...
Loading historical data...

Documentation

Showing up to 5 results
|